TimeCDT,TemperatureF,Dew PointF,Humidity,Sea Level PressureIn,VisibilityMPH,Wind Direction,Wind SpeedMPH,Gust SpeedMPH,PrecipitationIn,Events,Conditions,WindDirDegrees,DateUTC
12:53 AM,48.0,44.1,86,30.13,10.0,West,4.6,-,N/A,,Clear,260,2013-05-23 05:53:00
1:53 AM,44.1,42.1,93,30.15,10.0,West,5.8,-,N/A,,Clear,260,2013-05-23 06:53:00
2:53 AM,46.0,43.0,89,30.15,10.0,NW,4.6,-,N/A,,Clear,320,2013-05-23 07:53:00
3:53 AM,45.0,41.0,86,30.16,10.0,North,4.6,-,N/A,,Clear,360,2013-05-23 08:53:00
4:53 AM,46.9,42.1,83,30.18,10.0,North,8.1,-,N/A,,Clear,10,2013-05-23 09:53:00
5:53 AM,45.0,41.0,86,30.20,10.0,North,4.6,-,N/A,,Clear,360,2013-05-23 10:53:00
6:53 AM,46.0,42.1,86,30.22,10.0,NNE,5.8,-,N/A,,Clear,30,2013-05-23 11:53:00
7:53 AM,48.9,45.0,86,30.24,10.0,NE,8.1,-,N/A,,Clear,50,2013-05-23 12:53:00
8:53 AM,51.1,46.0,83,30.25,10.0,ESE,5.8,-,N/A,,Clear,110,2013-05-23 13:53:00
9:07 AM,51.8,46.4,82,30.25,10.0,ESE,5.8,-,N/A,,Partly Cloudy,120,2013-05-23 14:07:00
9:53 AM,54.0,46.9,77,30.27,10.0,Variable,4.6,-,N/A,,Clear,0,2013-05-23 14:53:00
10:53 AM,61.0,48.9,64,30.27,10.0,South,6.9,-,N/A,,Clear,180,2013-05-23 15:53:00
11:53 AM,61.0,46.9,60,30.28,10.0,SE,8.1,-,N/A,,Mostly Cloudy,130,2013-05-23 16:53:00
12:53 PM,64.9,48.9,56,30.27,10.0,SE,11.5,-,N/A,,Scattered Clouds,140,2013-05-23 17:53:00
1:53 PM,66.0,46.0,48,30.27,10.0,ESE,8.1,18.4,N/A,,Mostly Cloudy,120,2013-05-23 18:53:00
2:53 PM,66.9,45.0,45,30.25,10.0,East,11.5,16.1,N/A,,Partly Cloudy,90,2013-05-23 19:53:00
3:53 PM,66.9,44.1,44,30.24,10.0,East,13.8,-,N/A,,Scattered Clouds,100,2013-05-23 20:53:00
4:53 PM,66.9,41.0,39,30.23,10.0,East,12.7,-,N/A,,Clear,90,2013-05-23 21:53:00
5:53 PM,66.9,44.1,44,30.23,10.0,SE,16.1,20.7,N/A,,Clear,140,2013-05-23 22:53:00
6:53 PM,64.9,44.1,47,30.23,10.0,SE,10.4,-,N/A,,Clear,130,2013-05-23 23:53:00
7:53 PM,62.1,42.1,48,30.23,10.0,SE,10.4,-,N/A,,Clear,130,2013-05-24 00:53:00
8:53 PM,55.9,43.0,62,30.24,10.0,ESE,6.9,-,N/A,,Clear,120,2013-05-24 01:53:00
9:53 PM,53.1,42.1,66,30.26,10.0,ESE,8.1,-,N/A,,Clear,120,2013-05-24 02:53:00
10:53 PM,52.0,42.1,69,30.26,10.0,ESE,10.4,-,N/A,,Clear,110,2013-05-24 03:53:00
11:53 PM,50.0,39.9,68,30.26,10.0,ESE,9.2,-,N/A,,Clear,110,2013-05-24 04:53:00